Weather History for Bridgeport, CT

Change the Weather History Date:

Sunday, October 13, 2013

  Actual Average Record
Temperature  
Mean Temperature 58 °F 56 °F  
Max Temperature 64 °F 64 °F 81 °F (1954)
Min Temperature 52 °F 47 °F 33 °F (2012)
Degree Days  
Heating Degree Days 7 10  
Month to date heating degree days 29 100  
Since 1 July heating degree days 110 168  
Cooling Degree Days 0 0  
Month to date cooling degree days 20 8  
Year to date cooling degree days 1001 824  
Growing Degree Days 8 (Base 50)    
Moisture  
Dew Point 49 °F    
Average Humidity 72    
Maximum Humidity 83    
Minimum Humidity 60    
Precipitation  
Precipitation 0.00 in 0.12 in 2.15 in (1990)
Month to date precipitation 0.26 1.56  
Year to date precipitation 29.76 33.94  
Snow  
Snow 0.00 in 0.00 in 0.00 in (2002)
Month to date snowfall 0.0 0.0  
Since 1 July snowfall 0.0 0.0  
Snow Depth 0.00 in    
Sea Level Pressure  
Sea Level Pressure 30.37 in    
Wind  
Wind Speed 11 mph (ENE)    
Max Wind Speed 12 mph    
Max Gust Speed 14 mph    
Visibility 10 miles    
Events      
T = Trace of Precipitation, MM = Missing Value Source: NWS Daily Summary

Daily Weather History Graph

Daily Weather History Graph

Search for Another Location

Airport:

Trip Planner

Search our weather history database for the weather conditions in past years. The results will help you decide how hot, cold, wet, or windy it might be!

Date:

Astronomy

Oct. 13, 2013 Rise Set
Actual Time 7:02 AM EDT 6:14 PM EDT
Civil Twilight 6:34 AM EDT 6:42 PM EDT
Nautical Twilight 6:02 AM EDT 7:14 PM EDT
Astronomical Twilight 5:30 AM EDT 7:45 PM EDT
Moon 3:06 PM EDT (10/13) 1:05 AM EDT (10/13)
Length of Visible Light 12h 07m
Length of Day
11h 12m
Waxing Gibbous, 69% of the Moon is Illuminated
Oct 13
Waxing Gibbous
Oct 18
Full
Oct 26
Last Quarter
Nov 3
New
Nov 10
First Quarter

Hourly Weather History & Observations

Time (EDT) Temp. Dew Point Humidity Pressure Visibility Wind Dir Wind Speed Gust Speed Precip Events Conditions
12:52 AM 57.9 °F 51.1 °F 78% 30.32 in 10.0 mi NE 11.5 mph - N/A   Mostly Cloudy
1:52 AM 57.0 °F 50.0 °F 77% 30.33 in 10.0 mi ENE 12.7 mph - N/A   Mostly Cloudy
2:04 AM 55.4 °F 50.0 °F 82% 30.33 in 10.0 mi ENE 13.8 mph 20.7 mph N/A   Scattered Clouds
2:52 AM 55.9 °F 48.9 °F 77% 30.32 in 10.0 mi NE 12.7 mph - N/A   Clear
3:52 AM 55.0 °F 48.9 °F 80% 30.32 in 10.0 mi NE 12.7 mph - N/A   Clear
4:52 AM 54.0 °F 48.0 °F 80% 30.33 in 10.0 mi NE 13.8 mph - N/A   Clear
5:52 AM 53.1 °F 48.0 °F 83% 30.35 in 10.0 mi NE 11.5 mph - N/A   Partly Cloudy
7:52 AM 53.1 °F 48.0 °F 83% 30.39 in 10.0 mi NE 12.7 mph - N/A   Scattered Clouds
8:09 AM 53.6 °F 48.2 °F 82% 30.39 in 10.0 mi ENE 11.5 mph - N/A   Mostly Cloudy
8:52 AM 55.0 °F 48.0 °F 77% 30.40 in 10.0 mi NE 15.0 mph - N/A   Overcast
10:52 AM 59.0 °F 48.0 °F 67% 30.40 in 10.0 mi ENE 12.7 mph - N/A   Mostly Cloudy
11:44 AM 60.8 °F 48.2 °F 63% 30.41 in 10.0 mi East 11.5 mph - N/A   Scattered Clouds
11:52 AM 61.0 °F 48.9 °F 64% 30.41 in 10.0 mi East 11.5 mph - N/A   Scattered Clouds
12:24 PM 62.6 °F 48.2 °F 59% 30.40 in 10.0 mi East 13.8 mph - N/A   Mostly Cloudy
12:48 PM 62.6 °F 48.2 °F 59% 30.40 in 10.0 mi East 12.7 mph - N/A   Scattered Clouds
12:52 PM 62.1 °F 48.9 °F 62% 30.40 in 10.0 mi ESE 12.7 mph - N/A   Partly Cloudy
1:52 PM 62.1 °F 48.9 °F 62% 30.39 in 10.0 mi East 12.7 mph - N/A   Scattered Clouds
2:52 PM 63.0 °F 50.0 °F 63% 30.38 in 10.0 mi East 12.7 mph - N/A   Scattered Clouds
3:52 PM 63.0 °F 48.9 °F 60% 30.37 in 10.0 mi East 12.7 mph - N/A   Clear
4:52 PM 62.1 °F 48.9 °F 62% 30.37 in 10.0 mi East 9.2 mph - N/A   Mostly Cloudy
5:52 PM 61.0 °F 48.0 °F 62% 30.36 in 10.0 mi ENE 9.2 mph - N/A   Mostly Cloudy
6:52 PM 60.1 °F 48.9 °F 67% 30.36 in 10.0 mi East 8.1 mph - N/A   Partly Cloudy
7:52 PM 59.0 °F 48.9 °F 69% 30.38 in 10.0 mi NNE 9.2 mph - N/A   Mostly Cloudy
8:52 PM 57.9 °F 48.9 °F 72% 30.38 in 10.0 mi NNE 8.1 mph - N/A   Overcast
9:52 PM 57.9 °F 48.9 °F 72% 30.39 in 10.0 mi NNE 9.2 mph - N/A   Overcast
10:52 PM 59.0 °F 48.9 °F 69% 30.39 in 10.0 mi NE 8.1 mph - N/A   Overcast
11:52 PM 57.0 °F 48.0 °F 72% 30.39 in 10.0 mi NE 5.8 mph - N/A   Mostly Cloudy